User: anonymous   Login
Location: Unspecified
(0.0000°N, 0.0000°E)
Time: 22:58:45
(UTC+00:00)
Language:

Vanguard 1 Rocket - Orbit

View from above orbital plane
View from above orbital plane
View from above satellite
View from above satellite

Ground track
Ground track

The orbit data is extracted from the following two-line orbital elements,

1    16U 58002A   20274.95652655 -.00000015 +00000-0 -28421-4 0  9999
2    16 034.2669 210.0083 2022198 322.5270 024.9847 10.48675472469915
Epoch (UTC): 30 September 2020 22:57:23
Eccentricity: 0.2022198
inclination: 34.2669°
perigee height: 655 km
apogee height: 4221 km
right ascension of ascending node: 210.0083°
argument of perigee: 322.5270°
revolutions per day: 10.48675472
mean anomaly at epoch: 24.9847°
orbit number at epoch: 46991

The dashed part of the orbit path shows where the satellite is in the earth's shadow,  

DLR